Location: Chakepay
(13.3931°S, 72.1925°W)
Time: 07:48:37
(UTC+00:00)

Nadezhda 4 Rocket - Pass Details

Date: 15 November 2019
Orbit: 950 x 992 km, 82.9° (Epoch: 05 December)

Event Time Altitude Azimuth Distance (km) Brightness Sun altitude
Rises 00:18:50 0° 176° (S) 3,646 7.3 -19.7°
Reaches altitude 10° 00:21:24 10° 171° (S) 2,700 6.5 -20.3°
Maximum altitude 00:27:25 55° 95° (E) 1,155 4.0 -21.6°
Enters shadow 00:29:18 40° 43° (NE) 1,387 4.3 -22.0°
